This is the latest recevied weather packets stored in our database for station/object K5OBH. If no packets are shown the sender has not sent any weather packets the latest 10 day(s).
| Time | Temp. | Humidity | Pressure | Rain* | Wind** | Luminosity | Snow |
|---|---|---|---|---|---|---|---|
| 1777908743 | 21.67° C | 58% | 1007.3 hPa | 0 mm | - | 473 W/m² | - |
| 1777908440 | 21.11° C | 58% | 1007.2 hPa | 0 mm | - | 455 W/m² | - |
| 1777908136 | 21.11° C | 57% | 1007.3 hPa | 0 mm | - | 447 W/m² | - |
| 1777907832 | 21.11° C | 58% | 1007.3 hPa | 0 mm | - | 392 W/m² | - |
| 1777907528 | 21.11° C | 58% | 1007.5 hPa | 0 mm | - | 422 W/m² | - |
| 1777907224 | 21.11° C | 57% | 1007.7 hPa | 0 mm | - | 391 W/m² | - |
| 1777906921 | 20.56° C | 58% | 1007.8 hPa | 0 mm | - | 359 W/m² | - |
| 1777906619 | 20.56° C | 58% | 1007.7 hPa | 0 mm | - | 372 W/m² | - |
| 1777906314 | 21.11° C | 57% | 1007.5 hPa | 0 mm | - | 360 W/m² | - |
| 1777906011 | 20.56° C | 58% | 1007.9 hPa | 0 mm | - | 339 W/m² | - |
| 1777905707 | 20.56° C | 58% | 1007.9 hPa | 0 mm | - | 332 W/m² | - |
| 1777905404 | 20° C | 59% | 1008 hPa | 0 mm | - | 330 W/m² | - |
| 1777905102 | 20.56° C | 59% | 1007.9 hPa | 0 mm | - | 302 W/m² | - |
| 1777904799 | 20° C | 60% | 1008 hPa | 0 mm | - | 288 W/m² | - |
| 1777904496 | 19.44° C | 60% | 1008.2 hPa | 0 mm | - | 274 W/m² | - |
| 1777904192 | 19.44° C | 61% | 1008.2 hPa | 0 mm | - | 247 W/m² | - |
| 1777903890 | 18.89° C | 61% | 1008.4 hPa | 0 mm | - | 229 W/m² | - |
| 1777903587 | 18.89° C | 62% | 1008.1 hPa | 0 mm | - | 210 W/m² | - |
| 1777903282 | 18.89° C | 63% | 1008.1 hPa | 0 mm | - | 210 W/m² | - |
| 1777902980 | 18.89° C | 63% | 1008.2 hPa | 0 mm | - | 218 W/m² | - |
| 1777902676 | 18.33° C | 63% | 1008.2 hPa | 0 mm | - | 203 W/m² | - |
| 1777902374 | 18.33° C | 63% | 1008.4 hPa | 0 mm | - | 206 W/m² | - |
| 1777902070 | 18.33° C | 63% | 1008.3 hPa | 0 mm | - | 201 W/m² | - |
| 1777901769 | 18.33° C | 63% | 1008.2 hPa | 0 mm | - | 179 W/m² | - |
| 1777901465 | 18.33° C | 64% | 1008.1 hPa | 0 mm | - | 171 W/m² | - |
* Rain latest hour (hover to see other rain measurements)
** Current wind speed in m/s (hover to see current wind gust speed)